Time,TemperatureF,DewpointF,PressureIn,WindDirection,WindDirectionDegrees,WindSpeedMPH,WindSpeedGustMPH,Humidity,HourlyPrecipIn,Conditions,Clouds,dailyrainin,SoftwareType,DateUTC
2013-05-25 00:01:00,50.6,39.3,30.36,NNW,347,6.0,6.0,65,0.00,,,0.00,Wunderground v.1.15,2013-05-25 04:01:00,
2013-05-25 00:03:00,50.4,39.5,30.36,NNW,334,5.0,6.0,66,0.00,,,0.00,Wunderground v.1.15,2013-05-25 04:03:00,
2013-05-25 00:05:00,50.4,39.5,30.36,NNW,340,6.0,6.0,66,0.00,,,0.00,Wunderground v.1.15,2013-05-25 04:05:00,
2013-05-25 00:06:00,50.3,39.4,30.36,North,349,6.0,6.0,66,0.00,,,0.00,Wunderground v.1.15,2013-05-25 04:06:00,
2013-05-25 00:11:00,50.1,39.9,30.36,NNE,19,6.0,7.0,68,0.00,,,0.00,Wunderground v.1.15,2013-05-25 04:11:00,
2013-05-25 00:17:00,49.9,39.8,30.37,NNW,332,7.0,11.0,68,0.00,,,0.00,Wunderground v.1.15,2013-05-25 04:17:00,
2013-05-25 00:19:00,49.7,39.6,30.37,NNW,345,7.0,11.0,68,0.00,,,0.00,Wunderground v.1.15,2013-05-25 04:19:00,
2013-05-25 00:25:00,49.4,40.0,30.37,NNW,334,8.0,8.0,70,0.00,,,0.00,Wunderground v.1.15,2013-05-25 04:25:00,
2013-05-25 00:31:00,49.1,39.7,30.37,NW,326,7.0,7.0,70,0.00,,,0.00,Wunderground v.1.15,2013-05-25 04:31:00,
2013-05-25 00:37:00,48.9,39.9,30.37,NNW,337,7.0,9.0,71,0.00,,,0.00,Wunderground v.1.15,2013-05-25 04:37:00,
2013-05-25 00:43:00,48.7,39.7,30.36,NNW,334,8.0,10.0,71,0.00,,,0.00,Wunderground v.1.15,2013-05-25 04:43:00,
2013-05-25 00:49:00,48.4,39.8,30.36,NNW,330,8.0,10.0,72,0.00,,,0.00,Wunderground v.1.15,2013-05-25 04:49:00,
2013-05-25 00:55:00,48.1,39.5,30.37,NNW,332,7.0,9.0,72,0.00,,,0.00,Wunderground v.1.15,2013-05-25 04:55:00,
2013-05-25 01:01:00,48.0,39.4,30.37,NNW,342,8.0,8.0,72,0.00,,,0.00,Wunderground v.1.15,2013-05-25 05:01:00,
2013-05-25 01:07:00,47.7,39.5,30.37,NNW,339,8.0,10.0,73,0.00,,,0.00,Wunderground v.1.15,2013-05-25 05:07:00,
2013-05-25 01:13:00,47.5,39.6,30.37,NNW,335,8.0,8.0,74,0.00,,,0.00,Wunderground v.1.15,2013-05-25 05:13:00,
2013-05-25 01:19:00,47.2,39.7,30.37,NNW,344,7.0,8.0,75,0.00,,,0.00,Wunderground v.1.15,2013-05-25 05:19:00,
2013-05-25 01:25:00,47.0,39.5,30.37,NNW,342,7.0,7.0,75,0.00,,,0.00,Wunderground v.1.15,2013-05-25 05:25:00,
2013-05-25 01:31:00,46.7,39.2,30.37,NNW,335,7.0,7.0,75,0.00,,,0.00,Wunderground v.1.15,2013-05-25 05:31:00,
2013-05-25 01:37:00,46.5,39.3,30.37,NNW,335,6.0,7.0,76,0.00,,,0.00,Wunderground v.1.15,2013-05-25 05:37:00,
2013-05-25 01:43:00,46.4,39.2,30.37,NNW,330,6.0,6.0,76,0.00,,,0.00,Wunderground v.1.15,2013-05-25 05:43:00,
2013-05-25 01:49:00,46.2,39.1,30.38,NNW,345,7.0,8.0,76,0.00,,,0.00,Wunderground v.1.15,2013-05-25 05:49:00,
2013-05-25 01:54:00,46.0,38.9,30.37,NNW,340,6.0,7.0,76,0.00,,,0.00,Wunderground v.1.15,2013-05-25 05:54:00,
2013-05-25 02:01:00,45.8,39.0,30.37,North,356,5.0,5.0,77,0.00,,,0.00,Wunderground v.1.15,2013-05-25 06:01:00,
2013-05-25 02:07:00,45.6,38.8,30.37,NNW,333,5.0,6.0,77,0.00,,,0.00,Wunderground v.1.15,2013-05-25 06:07:00,
2013-05-25 02:13:00,45.4,38.6,30.37,NNW,340,4.0,5.0,77,0.00,,,0.00,Wunderground v.1.15,2013-05-25 06:13:00,
2013-05-25 02:19:00,45.2,38.7,30.38,NW,319,4.0,6.0,78,0.00,,,0.00,Wunderground v.1.15,2013-05-25 06:19:00,
2013-05-25 02:25:00,45.0,38.6,30.38,NNW,337,5.0,5.0,78,0.00,,,0.00,Wunderground v.1.15,2013-05-25 06:25:00,
2013-05-25 02:31:00,44.8,38.4,30.38,NNW,330,4.0,4.0,78,0.00,,,0.00,Wunderground v.1.15,2013-05-25 06:31:00,
2013-05-25 02:36:00,44.6,38.5,30.38,NNW,347,3.0,5.0,79,0.00,,,0.00,Wunderground v.1.15,2013-05-25 06:36:00,
2013-05-25 02:42:00,44.5,38.4,30.38,NNE,23,3.0,6.0,79,0.00,,,0.00,Wunderground v.1.15,2013-05-25 06:42:00,
2013-05-25 02:48:00,44.5,38.4,30.38,North,352,4.0,6.0,79,0.00,,,0.00,Wunderground v.1.15,2013-05-25 06:48:00,
2013-05-25 02:54:00,44.2,38.7,30.37,North,360,3.0,5.0,81,0.00,,,0.00,Wunderground v.1.15,2013-05-25 06:54:00,
2013-05-25 03:01:00,44.0,38.2,30.37,North,11,2.0,2.0,80,0.00,,,0.00,Wunderground v.1.15,2013-05-25 07:01:00,
2013-05-25 03:07:00,43.8,38.3,30.37,NNE,23,2.0,5.0,81,0.00,,,0.00,Wunderground v.1.15,2013-05-25 07:07:00,
2013-05-25 03:13:00,43.6,38.5,30.37,NNE,27,2.0,5.0,82,0.00,,,0.00,Wunderground v.1.15,2013-05-25 07:13:00,
2013-05-25 03:19:00,43.1,38.3,30.37,NNE,27,1.0,5.0,83,0.00,,,0.00,Wunderground v.1.15,2013-05-25 07:19:00,
2013-05-25 03:25:00,42.7,38.2,30.37,NNE,27,0.0,5.0,84,0.00,,,0.00,Wunderground v.1.15,2013-05-25 07:25:00,
2013-05-25 03:30:00,42.4,37.9,30.37,NNE,27,0.0,5.0,84,0.00,,,0.00,Wunderground v.1.15,2013-05-25 07:30:00,
2013-05-25 03:36:00,42.2,38.3,30.36,NNE,27,0.0,5.0,86,0.00,,,0.00,Wunderground v.1.15,2013-05-25 07:36:00,
2013-05-25 03:42:00,42.7,38.5,30.36,NNE,31,2.0,5.0,85,0.00,,,0.00,Wunderground v.1.15,2013-05-25 07:42:00,
2013-05-25 03:48:00,43.1,38.3,30.35,NNE,18,2.0,5.0,83,0.00,,,0.00,Wunderground v.1.15,2013-05-25 07:48:00,
2013-05-25 03:54:00,43.1,38.3,30.36,NNE,22,3.0,5.0,83,0.00,,,0.00,Wunderground v.1.15,2013-05-25 07:54:00,
2013-05-25 04:01:00,43.3,38.2,30.36,NNE,20,2.0,5.0,82,0.00,,,0.00,Wunderground v.1.15,2013-05-25 08:01:00,
2013-05-25 04:07:00,43.3,38.2,30.36,NNE,13,3.0,5.0,82,0.00,,,0.00,Wunderground v.1.15,2013-05-25 08:07:00,
2013-05-25 04:12:00,43.1,38.3,30.35,NNE,20,3.0,5.0,83,0.00,,,0.00,Wunderground v.1.15,2013-05-25 08:12:00,
2013-05-25 04:18:00,43.1,38.3,30.35,North,7,3.0,5.0,83,0.00,,,0.00,Wunderground v.1.15,2013-05-25 08:18:00,
2013-05-25 04:24:00,43.3,38.2,30.35,NNE,29,4.0,5.0,82,0.00,,,0.00,Wunderground v.1.15,2013-05-25 08:24:00,
2013-05-25 04:30:00,43.4,38.0,30.34,NNE,19,4.0,5.0,81,0.00,,,0.00,Wunderground v.1.15,2013-05-25 08:30:00,
2013-05-25 04:36:00,43.5,38.4,30.34,North,11,4.0,5.0,82,0.00,,,0.00,Wunderground v.1.15,2013-05-25 08:36:00,
2013-05-25 04:42:00,43.4,38.3,30.35,NNE,13,4.0,6.0,82,0.00,,,0.00,Wunderground v.1.15,2013-05-25 08:42:00,
2013-05-25 04:48:00,43.3,38.2,30.35,NNE,13,4.0,6.0,82,0.00,,,0.00,Wunderground v.1.15,2013-05-25 08:48:00,
2013-05-25 04:54:00,43.2,38.1,30.35,NNE,20,4.0,6.0,82,0.00,,,0.00,Wunderground v.1.15,2013-05-25 08:54:00,
2013-05-25 04:59:00,43.3,38.2,30.34,NNE,13,5.0,6.0,82,0.00,,,0.00,Wunderground v.1.15,2013-05-25 08:59:00,
2013-05-25 05:05:00,43.4,38.6,30.34,NNE,21,4.0,5.0,83,0.00,,,0.00,Wunderground v.1.15,2013-05-25 09:05:00,
2013-05-25 05:11:00,43.5,38.7,30.34,NNE,13,3.0,5.0,83,0.00,,,0.00,Wunderground v.1.15,2013-05-25 09:11:00,
2013-05-25 05:16:00,43.6,38.5,30.33,NNE,32,4.0,5.0,82,0.00,,,0.00,Wunderground v.1.15,2013-05-25 09:16:00,
2013-05-25 05:22:00,43.8,39.0,30.34,NNW,348,4.0,5.0,83,0.00,,,0.00,Wunderground v.1.15,2013-05-25 09:22:00,
2013-05-25 05:28:00,43.8,39.0,30.33,NE,43,3.0,5.0,83,0.00,,,0.00,Wunderground v.1.15,2013-05-25 09:28:00,
2013-05-25 05:34:00,43.7,38.9,30.33,North,9,2.0,5.0,83,0.00,,,0.00,Wunderground v.1.15,2013-05-25 09:34:00,
2013-05-25 05:40:00,43.7,38.9,30.34,NNE,20,3.0,5.0,83,0.00,,,0.00,Wunderground v.1.15,2013-05-25 09:40:00,
2013-05-25 05:46:00,43.5,39.0,30.34,North,359,2.0,5.0,84,0.00,,,0.00,Wunderground v.1.15,2013-05-25 09:46:00,
2013-05-25 05:52:00,43.2,38.7,30.34,NNE,13,2.0,5.0,84,0.00,,,0.00,Wunderground v.1.15,2013-05-25 09:52:00,
2013-05-25 05:57:00,43.1,38.6,30.34,North,9,2.0,5.0,84,0.00,,,0.00,Wunderground v.1.15,2013-05-25 09:57:00,
2013-05-25 06:03:00,43.1,38.9,30.35,NNW,336,2.0,5.0,85,0.00,,,0.00,Wunderground v.1.15,2013-05-25 10:03:00,
2013-05-25 06:09:00,43.1,38.9,30.35,North,358,2.0,5.0,85,0.00,,,0.00,Wunderground v.1.15,2013-05-25 10:09:00,
2013-05-25 06:15:00,43.1,38.9,30.35,North,352,2.0,5.0,85,0.00,,,0.00,Wunderground v.1.15,2013-05-25 10:15:00,
2013-05-25 06:21:00,43.2,39.6,30.36,North,349,2.0,5.0,87,0.00,,,0.00,Wunderground v.1.15,2013-05-25 10:21:00,
2013-05-25 06:27:00,43.2,39.9,30.36,North,8,2.0,5.0,88,0.00,,,0.00,Wunderground v.1.15,2013-05-25 10:27:00,
2013-05-25 06:32:00,43.3,39.7,30.36,North,6,2.0,5.0,87,0.00,,,0.00,Wunderground v.1.15,2013-05-25 10:32:00,
2013-05-25 06:38:00,43.5,39.9,30.36,North,9,1.0,5.0,87,0.00,,,0.00,Wunderground v.1.15,2013-05-25 10:38:00,
2013-05-25 06:44:00,43.7,40.1,30.36,North,7,1.0,5.0,87,0.00,,,0.00,Wunderground v.1.15,2013-05-25 10:44:00,
2013-05-25 06:50:00,44.0,40.4,30.37,North,352,1.0,5.0,87,0.00,,,0.00,Wunderground v.1.15,2013-05-25 10:50:00,
2013-05-25 06:56:00,44.3,40.4,30.37,NNE,27,2.0,5.0,86,0.00,,,0.00,Wunderground v.1.15,2013-05-25 10:56:00,
2013-05-25 07:01:00,44.4,40.2,30.37,NNE,23,2.0,2.0,85,0.00,,,0.00,Wunderground v.1.15,2013-05-25 11:01:00,
2013-05-25 07:07:00,44.6,40.4,30.37,NNE,12,1.0,5.0,85,0.00,,,0.00,Wunderground v.1.15,2013-05-25 11:07:00,
2013-05-25 07:12:00,44.7,40.5,30.37,NW,323,1.0,5.0,85,0.00,,,0.00,Wunderground v.1.15,2013-05-25 11:12:00,
2013-05-25 07:18:00,44.9,41.0,30.38,NNW,327,1.0,5.0,86,0.00,,,0.00,Wunderground v.1.15,2013-05-25 11:18:00,
2013-05-25 07:24:00,45.0,41.1,30.38,NNE,15,1.0,5.0,86,0.00,,,0.00,Wunderground v.1.15,2013-05-25 11:24:00,
2013-05-25 07:30:00,45.3,41.1,30.39,North,9,2.0,5.0,85,0.00,,,0.00,Wunderground v.1.15,2013-05-25 11:30:00,
2013-05-25 07:36:00,45.5,41.3,30.38,NNE,25,1.0,5.0,85,0.00,,,0.00,Wunderground v.1.15,2013-05-25 11:36:00,
2013-05-25 07:42:00,45.8,41.5,30.39,NNE,25,1.0,5.0,85,0.00,,,0.00,Wunderground v.1.15,2013-05-25 11:42:00,
2013-05-25 07:47:00,46.1,42.1,30.40,NNE,24,0.0,5.0,86,0.00,,,0.00,Wunderground v.1.15,2013-05-25 11:47:00,
2013-05-25 07:53:00,46.5,42.2,30.39,NNW,333,0.0,5.0,85,0.00,,,0.00,Wunderground v.1.15,2013-05-25 11:53:00,
2013-05-25 07:59:00,46.9,42.3,30.39,SW,233,0.0,5.0,84,0.00,,,0.00,Wunderground v.1.15,2013-05-25 11:59:00,
2013-05-25 08:05:00,47.4,42.8,30.39,SE,135,0.0,5.0,84,0.00,,,0.00,Wunderground v.1.15,2013-05-25 12:05:00,
2013-05-25 08:11:00,47.6,41.7,30.39,SSE,149,1.0,5.0,80,0.00,,,0.00,Wunderground v.1.15,2013-05-25 12:11:00,
2013-05-25 08:17:00,47.9,42.0,30.40,SSE,148,1.0,5.0,80,0.00,,,0.00,Wunderground v.1.15,2013-05-25 12:17:00,
2013-05-25 08:22:00,48.1,41.6,30.40,NE,52,0.0,5.0,78,0.00,,,0.00,Wunderground v.1.15,2013-05-25 12:22:00,
2013-05-25 08:28:00,48.3,41.1,30.40,NE,46,1.0,5.0,76,0.00,,,0.00,Wunderground v.1.15,2013-05-25 12:28:00,
2013-05-25 08:34:00,48.5,42.9,30.40,NNE,20,2.0,5.0,81,0.00,,,0.00,Wunderground v.1.15,2013-05-25 12:34:00,
2013-05-25 08:40:00,48.2,43.0,30.41,NNW,347,3.0,5.0,82,0.00,,,0.00,Wunderground v.1.15,2013-05-25 12:40:00,
2013-05-25 08:46:00,48.5,43.3,30.40,NE,51,2.0,5.0,82,0.00,,,0.00,Wunderground v.1.15,2013-05-25 12:46:00,
2013-05-25 08:52:00,49.1,43.2,30.41,ENE,64,1.0,5.0,80,0.00,,,0.00,Wunderground v.1.15,2013-05-25 12:52:00,
2013-05-25 08:58:00,50.0,43.7,30.41,ESE,107,0.0,5.0,79,0.00,,,0.00,Wunderground v.1.15,2013-05-25 12:58:00,
2013-05-25 09:03:00,50.7,43.1,30.40,ESE,113,1.0,5.0,75,0.00,,,0.00,Wunderground v.1.15,2013-05-25 13:03:00,
2013-05-25 09:09:00,50.5,42.5,30.40,SE,127,2.0,5.0,74,0.00,,,0.00,Wunderground v.1.15,2013-05-25 13:09:00,
2013-05-25 09:15:00,50.6,42.6,30.41,SE,143,2.0,5.0,74,0.00,,,0.00,Wunderground v.1.15,2013-05-25 13:15:00,
2013-05-25 09:21:00,50.6,42.6,30.41,SSE,148,2.0,2.0,74,0.00,,,0.00,Wunderground v.1.15,2013-05-25 13:21:00,
2013-05-25 09:27:00,51.1,43.1,30.41,SE,139,2.0,5.0,74,0.00,,,0.00,Wunderground v.1.15,2013-05-25 13:27:00,
2013-05-25 09:33:00,51.8,43.8,30.41,ESE,117,2.0,5.0,74,0.00,,,0.00,Wunderground v.1.15,2013-05-25 13:33:00,
2013-05-25 09:39:00,52.3,43.9,30.41,SE,132,2.0,5.0,73,0.00,,,0.00,Wunderground v.1.15,2013-05-25 13:39:00,
2013-05-25 09:44:00,53.0,44.9,30.41,ENE,58,2.0,5.0,74,0.00,,,0.00,Wunderground v.1.15,2013-05-25 13:44:00,
2013-05-25 09:50:00,53.7,44.5,30.41,SE,127,1.0,5.0,71,0.00,,,0.00,Wunderground v.1.15,2013-05-25 13:50:00,
2013-05-25 09:56:00,54.1,44.9,30.41,ESE,114,2.0,5.0,71,0.00,,,0.00,Wunderground v.1.15,2013-05-25 13:56:00,
2013-05-25 10:01:00,54.6,45.0,30.41,SE,135,1.0,1.0,70,0.00,,,0.00,Wunderground v.1.15,2013-05-25 14:01:00,
2013-05-25 10:07:00,55.5,44.7,30.41,SSE,149,1.0,5.0,67,0.00,,,0.00,Wunderground v.1.15,2013-05-25 14:07:00,
2013-05-25 10:12:00,55.8,43.0,30.41,ESE,120,2.0,5.0,62,0.00,,,0.00,Wunderground v.1.15,2013-05-25 14:12:00,
2013-05-25 10:18:00,55.8,43.0,30.41,SSE,149,3.0,5.0,62,0.00,,,0.00,Wunderground v.1.15,2013-05-25 14:18:00,
2013-05-25 10:23:00,55.9,43.1,30.41,SSE,149,4.0,5.0,62,0.00,,,0.00,Wunderground v.1.15,2013-05-25 14:23:00,
2013-05-25 10:29:00,56.3,43.0,30.41,East,92,4.0,5.0,61,0.00,,,0.00,Wunderground v.1.15,2013-05-25 14:29:00,
2013-05-25 10:35:00,56.5,43.2,30.41,SE,129,4.0,5.0,61,0.00,,,0.00,Wunderground v.1.15,2013-05-25 14:35:00,
2013-05-25 10:41:00,56.8,43.1,30.40,ESE,114,3.0,5.0,60,0.00,,,0.00,Wunderground v.1.15,2013-05-25 14:41:00,
2013-05-25 10:47:00,57.2,43.0,30.40,SE,145,3.0,5.0,59,0.00,,,0.00,Wunderground v.1.15,2013-05-25 14:47:00,
2013-05-25 10:52:00,57.5,42.8,30.39,SE,139,3.0,5.0,58,0.00,,,0.00,Wunderground v.1.15,2013-05-25 14:52:00,
2013-05-25 10:58:00,57.8,42.2,30.40,SSE,149,3.0,5.0,56,0.00,,,0.00,Wunderground v.1.15,2013-05-25 14:58:00,
2013-05-25 11:04:00,57.5,42.4,30.40,SE,145,3.0,5.0,57,0.00,,,0.00,Wunderground v.1.15,2013-05-25 15:04:00,
2013-05-25 11:10:00,57.9,43.2,30.39,SE,141,3.0,5.0,58,0.00,,,0.00,Wunderground v.1.15,2013-05-25 15:10:00,
2013-05-25 11:16:00,58.5,43.3,30.40,SE,131,2.0,5.0,57,0.00,,,0.00,Wunderground v.1.15,2013-05-25 15:16:00,
2013-05-25 11:22:00,58.7,43.5,30.39,ESE,117,3.0,5.0,57,0.00,,,0.00,Wunderground v.1.15,2013-05-25 15:22:00,
2013-05-25 11:28:00,58.6,42.9,30.39,SE,139,4.0,6.0,56,0.00,,,0.00,Wunderground v.1.15,2013-05-25 15:28:00,
2013-05-25 11:33:00,59.2,42.6,30.38,East,100,3.0,5.0,54,0.00,,,0.00,Wunderground v.1.15,2013-05-25 15:33:00,
2013-05-25 11:39:00,59.9,44.2,30.38,ESE,118,3.0,10.0,56,0.00,,,0.00,Wunderground v.1.15,2013-05-25 15:39:00,
2013-05-25 11:45:00,60.4,42.2,30.38,SE,127,3.0,9.0,51,0.00,,,0.00,Wunderground v.1.15,2013-05-25 15:45:00,
2013-05-25 11:51:00,60.1,42.4,30.38,South,179,5.0,5.0,52,0.00,,,0.00,Wunderground v.1.15,2013-05-25 15:51:00,
2013-05-25 11:57:00,60.4,41.7,30.38,SW,222,5.0,8.0,50,0.00,,,0.00,Wunderground v.1.15,2013-05-25 15:57:00,
2013-05-25 12:03:00,60.4,41.7,30.38,SW,214,5.0,5.0,50,0.00,,,0.00,Wunderground v.1.15,2013-05-25 16:03:00,
2013-05-25 12:09:00,60.5,41.2,30.38,East,89,5.0,8.0,49,0.00,,,0.00,Wunderground v.1.15,2013-05-25 16:09:00,
2013-05-25 12:14:00,60.6,41.3,30.38,SE,135,5.0,5.0,49,0.00,,,0.00,Wunderground v.1.15,2013-05-25 16:14:00,
2013-05-25 12:20:00,61.7,40.7,30.38,North,11,3.0,5.0,46,0.00,,,0.00,Wunderground v.1.15,2013-05-25 16:20:00,
2013-05-25 12:26:00,62.5,41.4,30.38,SE,134,2.0,7.0,46,0.00,,,0.00,Wunderground v.1.15,2013-05-25 16:26:00,
2013-05-25 12:32:00,63.1,41.4,30.38,SSW,201,3.0,5.0,45,0.00,,,0.00,Wunderground v.1.15,2013-05-25 16:32:00,
2013-05-25 12:38:00,62.9,41.2,30.38,ESE,117,3.0,6.0,45,0.00,,,0.00,Wunderground v.1.15,2013-05-25 16:38:00,
2013-05-25 12:44:00,62.5,41.4,30.38,NW,314,3.0,5.0,46,0.00,,,0.00,Wunderground v.1.15,2013-05-25 16:44:00,
2013-05-25 12:50:00,62.9,40.6,30.38,SSE,165,2.0,5.0,44,0.00,,,0.00,Wunderground v.1.15,2013-05-25 16:50:00,
2013-05-25 12:56:00,63.5,41.2,30.38,NW,304,2.0,5.0,44,0.00,,,0.00,Wunderground v.1.15,2013-05-25 16:56:00,
2013-05-25 13:01:00,63.7,40.8,30.38,SSW,200,2.0,5.0,43,0.00,,,0.00,Wunderground v.1.15,2013-05-25 17:01:00,
2013-05-25 13:07:00,63.6,40.7,30.38,East,96,3.0,5.0,43,0.00,,,0.00,Wunderground v.1.15,2013-05-25 17:07:00,
2013-05-25 13:13:00,63.7,43.6,30.38,WNW,284,2.0,5.0,48,0.00,,,0.00,Wunderground v.1.15,2013-05-25 17:13:00,
2013-05-25 13:19:00,63.4,44.4,30.38,SSE,154,3.0,5.0,50,0.00,,,0.00,Wunderground v.1.15,2013-05-25 17:19:00,
2013-05-25 13:25:00,63.5,42.9,30.38,WNW,300,3.0,7.0,47,0.00,,,0.00,Wunderground v.1.15,2013-05-25 17:25:00,
2013-05-25 13:31:00,62.8,42.8,30.38,SW,235,3.0,3.0,48,0.00,,,0.00,Wunderground v.1.15,2013-05-25 17:31:00,
2013-05-25 13:37:00,62.8,41.7,30.38,SW,236,3.0,5.0,46,0.00,,,0.00,Wunderground v.1.15,2013-05-25 17:37:00,
2013-05-25 13:42:00,62.8,43.3,30.38,North,5,2.0,5.0,49,0.00,,,0.00,Wunderground v.1.15,2013-05-25 17:42:00,
2013-05-25 13:48:00,61.6,42.2,30.38,WNW,300,4.0,6.0,49,0.00,,,0.00,Wunderground v.1.15,2013-05-25 17:48:00,
2013-05-25 13:54:00,61.3,42.5,30.38,SSW,207,5.0,5.0,50,0.00,,,0.00,Wunderground v.1.15,2013-05-25 17:54:00,
2013-05-25 14:01:00,61.3,42.0,30.38,NW,307,3.0,6.0,49,0.00,,,0.00,Wunderground v.1.15,2013-05-25 18:01:00,
2013-05-25 14:07:00,60.7,41.9,30.37,NW,309,5.0,8.0,50,0.00,,,0.00,Wunderground v.1.15,2013-05-25 18:07:00,
2013-05-25 14:13:00,60.7,43.0,30.37,NW,322,4.0,5.0,52,0.00,,,0.00,Wunderground v.1.15,2013-05-25 18:13:00,
2013-05-25 14:19:00,60.5,43.3,30.37,NNW,330,3.0,5.0,53,0.00,,,0.00,Wunderground v.1.15,2013-05-25 18:19:00,
2013-05-25 14:25:00,60.8,43.1,30.37,NW,304,4.0,6.0,52,0.00,,,0.00,Wunderground v.1.15,2013-05-25 18:25:00,
2013-05-25 14:31:00,60.6,44.3,30.37,SW,214,4.0,8.0,55,0.00,,,0.00,Wunderground v.1.15,2013-05-25 18:31:00,
2013-05-25 14:36:00,60.5,43.3,30.37,NW,312,4.0,8.0,53,0.00,,,0.00,Wunderground v.1.15,2013-05-25 18:36:00,
2013-05-25 14:42:00,60.3,44.5,30.36,WSW,246,4.0,5.0,56,0.00,,,0.00,Wunderground v.1.15,2013-05-25 18:42:00,
2013-05-25 14:48:00,60.4,44.2,30.36,West,259,4.0,8.0,55,0.00,,,0.00,Wunderground v.1.15,2013-05-25 18:48:00,
2013-05-25 14:54:00,60.0,43.3,30.36,West,274,4.0,7.0,54,0.00,,,0.00,Wunderground v.1.15,2013-05-25 18:54:00,
2013-05-25 15:01:00,60.0,43.8,30.36,WNW,297,3.0,5.0,55,0.00,,,0.00,Wunderground v.1.15,2013-05-25 19:01:00,
2013-05-25 15:07:00,60.3,44.1,30.36,SSW,193,3.0,5.0,55,0.00,,,0.00,Wunderground v.1.15,2013-05-25 19:07:00,
2013-05-25 15:13:00,60.3,43.6,30.35,NW,310,4.0,6.0,54,0.00,,,0.00,Wunderground v.1.15,2013-05-25 19:13:00,
2013-05-25 15:19:00,60.4,44.2,30.35,WNW,285,4.0,6.0,55,0.00,,,0.00,Wunderground v.1.15,2013-05-25 19:19:00,
2013-05-25 15:25:00,60.5,44.2,30.34,SSW,208,3.0,5.0,55,0.00,,,0.00,Wunderground v.1.15,2013-05-25 19:25:00,
2013-05-25 15:30:00,60.5,44.7,30.34,WNW,289,3.0,5.0,56,0.00,,,0.00,Wunderground v.1.15,2013-05-25 19:30:00,
2013-05-25 15:36:00,60.4,44.6,30.34,WSW,246,3.0,5.0,56,0.00,,,0.00,Wunderground v.1.15,2013-05-25 19:36:00,
2013-05-25 15:42:00,60.5,45.2,30.34,WNW,294,3.0,5.0,57,0.00,,,0.00,Wunderground v.1.15,2013-05-25 19:42:00,
2013-05-25 15:48:00,59.8,45.0,30.34,WNW,289,4.0,5.0,58,0.00,,,0.00,Wunderground v.1.15,2013-05-25 19:48:00,
2013-05-25 15:54:00,59.8,45.4,30.34,NNW,334,4.0,5.0,59,0.00,,,0.00,Wunderground v.1.15,2013-05-25 19:54:00,
2013-05-25 16:01:00,59.8,45.9,30.34,NW,319,3.0,5.0,60,0.00,,,0.00,Wunderground v.1.15,2013-05-25 20:01:00,
2013-05-25 16:07:00,59.5,45.6,30.34,West,259,4.0,6.0,60,0.00,,,0.00,Wunderground v.1.15,2013-05-25 20:07:00,
2013-05-25 16:12:00,59.8,45.0,30.34,NNW,340,4.0,5.0,58,0.00,,,0.00,Wunderground v.1.15,2013-05-25 20:12:00,
2013-05-25 16:18:00,59.9,44.6,30.34,West,281,3.0,5.0,57,0.00,,,0.00,Wunderground v.1.15,2013-05-25 20:18:00,
2013-05-25 16:24:00,60.2,45.4,30.34,NW,314,2.0,5.0,58,0.00,,,0.00,Wunderground v.1.15,2013-05-25 20:24:00,
2013-05-25 16:30:00,60.0,44.7,30.33,SW,226,3.0,6.0,57,0.00,,,0.00,Wunderground v.1.15,2013-05-25 20:30:00,
2013-05-25 16:36:00,59.8,44.5,30.33,NW,314,3.0,5.0,57,0.00,,,0.00,Wunderground v.1.15,2013-05-25 20:36:00,
2013-05-25 16:42:00,60.0,44.7,30.33,NW,310,3.0,5.0,57,0.00,,,0.00,Wunderground v.1.15,2013-05-25 20:42:00,
2013-05-25 16:48:00,60.2,44.9,30.33,West,275,2.0,5.0,57,0.00,,,0.00,Wunderground v.1.15,2013-05-25 20:48:00,
2013-05-25 16:54:00,60.7,45.4,30.32,SW,233,2.0,5.0,57,0.00,,,0.00,Wunderground v.1.15,2013-05-25 20:54:00,
2013-05-25 17:01:00,61.7,45.8,30.31,South,190,2.0,2.0,56,0.00,,,0.00,Wunderground v.1.15,2013-05-25 21:01:00,
2013-05-25 17:07:00,62.7,44.3,30.31,ESE,121,2.0,5.0,51,0.00,,,0.00,Wunderground v.1.15,2013-05-25 21:07:00,
2013-05-25 17:13:00,63.2,45.3,30.31,WNW,282,1.0,5.0,52,0.00,,,0.00,Wunderground v.1.15,2013-05-25 21:13:00,
2013-05-25 17:19:00,63.6,43.5,30.31,SE,144,1.0,5.0,48,0.00,,,0.00,Wunderground v.1.15,2013-05-25 21:19:00,
2013-05-25 17:24:00,63.0,43.0,30.31,ENE,71,2.0,5.0,48,0.00,,,0.00,Wunderground v.1.15,2013-05-25 21:24:00,
2013-05-25 17:30:00,62.8,43.3,30.31,SE,130,2.0,5.0,49,0.00,,,0.00,Wunderground v.1.15,2013-05-25 21:30:00,
2013-05-25 17:36:00,63.4,43.9,30.31,SE,145,1.0,5.0,49,0.00,,,0.00,Wunderground v.1.15,2013-05-25 21:36:00,
2013-05-25 17:42:00,63.6,44.1,30.31,SSE,167,1.0,5.0,49,0.00,,,0.00,Wunderground v.1.15,2013-05-25 21:42:00,
2013-05-25 17:48:00,62.8,42.8,30.31,SW,214,2.0,5.0,48,0.00,,,0.00,Wunderground v.1.15,2013-05-25 21:48:00,
2013-05-25 17:54:00,63.0,42.4,30.30,South,190,2.0,5.0,47,0.00,,,0.00,Wunderground v.1.15,2013-05-25 21:54:00,
2013-05-25 18:01:00,63.6,44.1,30.30,SSW,208,1.0,5.0,49,0.00,,,0.00,Wunderground v.1.15,2013-05-25 22:01:00,
2013-05-25 18:07:00,62.8,42.8,30.30,SW,236,2.0,5.0,48,0.00,,,0.00,Wunderground v.1.15,2013-05-25 22:07:00,
2013-05-25 18:12:00,62.5,43.1,30.29,North,349,2.0,5.0,49,0.00,,,0.00,Wunderground v.1.15,2013-05-25 22:12:00,
2013-05-25 18:18:00,62.1,42.2,30.28,SW,232,2.0,5.0,48,0.00,,,0.00,Wunderground v.1.15,2013-05-25 22:18:00,
2013-05-25 18:24:00,62.2,42.3,30.28,SW,229,1.0,5.0,48,0.00,,,0.00,Wunderground v.1.15,2013-05-25 22:24:00,
2013-05-25 18:30:00,62.2,42.3,30.27,North,10,0.0,5.0,48,0.00,,,0.00,Wunderground v.1.15,2013-05-25 22:30:00,
2013-05-25 18:36:00,62.0,42.6,30.27,SE,127,0.0,5.0,49,0.00,,,0.00,Wunderground v.1.15,2013-05-25 22:36:00,
2013-05-25 18:42:00,61.9,42.5,30.27,NNE,27,1.0,5.0,49,0.00,,,0.00,Wunderground v.1.15,2013-05-25 22:42:00,
2013-05-25 18:48:00,61.1,43.3,30.27,NNE,27,3.0,5.0,52,0.00,,,0.00,Wunderground v.1.15,2013-05-25 22:48:00,
2013-05-25 18:53:00,60.7,44.4,30.27,NNE,19,4.0,6.0,55,0.00,,,0.00,Wunderground v.1.15,2013-05-25 22:53:00,
2013-05-25 18:59:00,60.4,44.6,30.27,North,5,4.0,6.0,56,0.00,,,0.00,Wunderground v.1.15,2013-05-25 22:59:00,
2013-05-25 19:04:00,60.4,44.6,30.27,NNW,339,4.0,5.0,56,0.00,,,0.00,Wunderground v.1.15,2013-05-25 23:04:00,
2013-05-25 19:10:00,60.4,44.2,30.28,NNW,333,3.0,5.0,55,0.00,,,0.00,Wunderground v.1.15,2013-05-25 23:10:00,
2013-05-25 19:16:00,60.3,45.0,30.28,NW,305,3.0,5.0,57,0.00,,,0.00,Wunderground v.1.15,2013-05-25 23:16:00,
2013-05-25 19:22:00,60.2,44.4,30.29,WNW,299,3.0,5.0,56,0.00,,,0.00,Wunderground v.1.15,2013-05-25 23:22:00,
2013-05-25 19:28:00,60.1,45.7,30.30,NW,321,3.0,5.0,59,0.00,,,0.00,Wunderground v.1.15,2013-05-25 23:28:00,
2013-05-25 19:34:00,60.0,44.3,30.30,NW,311,3.0,5.0,56,0.00,,,0.00,Wunderground v.1.15,2013-05-25 23:34:00,
2013-05-25 19:40:00,59.9,45.5,30.30,NW,318,3.0,5.0,59,0.00,,,0.00,Wunderground v.1.15,2013-05-25 23:40:00,
2013-05-25 19:45:00,59.9,44.6,30.30,NW,315,2.0,5.0,57,0.00,,,0.00,Wunderground v.1.15,2013-05-25 23:45:00,
2013-05-25 19:51:00,59.8,44.1,30.30,NW,321,2.0,5.0,56,0.00,,,0.00,Wunderground v.1.15,2013-05-25 23:51:00,
2013-05-25 19:57:00,59.7,44.0,30.30,WNW,284,2.0,5.0,56,0.00,,,0.00,Wunderground v.1.15,2013-05-25 23:57:00,
2013-05-25 20:03:00,59.7,44.0,30.30,WNW,293,2.0,5.0,56,0.00,,,0.00,Wunderground v.1.15,2013-05-26 00:03:00,
2013-05-25 20:09:00,59.6,43.4,30.30,WSW,243,1.0,5.0,55,0.00,,,0.00,Wunderground v.1.15,2013-05-26 00:09:00,
2013-05-25 20:15:00,59.5,44.2,30.30,NW,309,1.0,5.0,57,0.00,,,0.00,Wunderground v.1.15,2013-05-26 00:15:00,
2013-05-25 20:21:00,59.4,44.6,30.29,NW,307,1.0,5.0,58,0.00,,,0.00,Wunderground v.1.15,2013-05-26 00:21:00,
2013-05-25 20:26:00,59.3,45.0,30.29,SW,228,1.0,5.0,59,0.00,,,0.00,Wunderground v.1.15,2013-05-26 00:26:00,
2013-05-25 20:32:00,59.1,44.8,30.29,WSW,253,1.0,5.0,59,0.00,,,0.00,Wunderground v.1.15,2013-05-26 00:32:00,
2013-05-25 20:38:00,59.0,46.0,30.29,West,281,1.0,5.0,62,0.00,,,0.00,Wunderground v.1.15,2013-05-26 00:38:00,
2013-05-25 20:44:00,58.6,46.5,30.29,WSW,243,0.0,5.0,64,0.00,,,0.00,Wunderground v.1.15,2013-05-26 00:44:00,
2013-05-25 20:50:00,58.3,46.6,30.29,SW,223,1.0,5.0,65,0.00,,,0.00,Wunderground v.1.15,2013-05-26 00:50:00,
2013-05-25 20:56:00,58.0,46.7,30.29,NW,309,1.0,5.0,66,0.00,,,0.00,Wunderground v.1.15,2013-05-26 00:56:00,
2013-05-25 21:01:00,57.8,45.3,30.29,WSW,252,1.0,1.0,63,0.00,,,0.00,Wunderground v.1.15,2013-05-26 01:01:00,
2013-05-25 21:07:00,57.8,45.7,30.29,WSW,241,1.0,5.0,64,0.00,,,0.00,Wunderground v.1.15,2013-05-26 01:07:00,
2013-05-25 21:13:00,57.7,45.6,30.29,SW,217,2.0,5.0,64,0.00,,,0.00,Wunderground v.1.15,2013-05-26 01:13:00,
2013-05-25 21:19:00,57.6,45.9,30.29,WSW,246,2.0,5.0,65,0.00,,,0.00,Wunderground v.1.15,2013-05-26 01:19:00,
2013-05-25 21:25:00,57.4,46.1,30.29,WSW,243,2.0,5.0,66,0.00,,,0.00,Wunderground v.1.15,2013-05-26 01:25:00,
2013-05-25 21:31:00,57.2,46.3,30.29,West,259,2.0,2.0,67,0.00,,,0.00,Wunderground v.1.15,2013-05-26 01:31:00,
2013-05-25 21:37:00,57.0,45.3,30.29,SW,223,2.0,5.0,65,0.00,,,0.00,Wunderground v.1.15,2013-05-26 01:37:00,
2013-05-25 21:42:00,57.0,44.5,30.29,WSW,257,1.0,5.0,63,0.00,,,0.00,Wunderground v.1.15,2013-05-26 01:42:00,
2013-05-25 21:48:00,57.0,44.5,30.29,SW,232,2.0,5.0,63,0.00,,,0.00,Wunderground v.1.15,2013-05-26 01:48:00,
2013-05-25 21:54:00,57.0,44.5,30.30,NW,326,2.0,5.0,63,0.00,,,0.00,Wunderground v.1.15,2013-05-26 01:54:00,
2013-05-25 22:01:00,56.9,44.8,30.30,SSE,158,2.0,5.0,64,0.00,,,0.00,Wunderground v.1.15,2013-05-26 02:01:00,
2013-05-25 22:07:00,56.8,43.9,30.30,South,170,2.0,5.0,62,0.00,,,0.00,Wunderground v.1.15,2013-05-26 02:07:00,
2013-05-25 22:13:00,56.8,44.3,30.30,SSE,155,2.0,5.0,63,0.00,,,0.00,Wunderground v.1.15,2013-05-26 02:13:00,
2013-05-25 22:19:00,56.7,44.2,30.30,WSW,250,2.0,5.0,63,0.00,,,0.00,Wunderground v.1.15,2013-05-26 02:19:00,
2013-05-25 22:25:00,56.6,43.3,30.30,West,277,3.0,5.0,61,0.00,,,0.00,Wunderground v.1.15,2013-05-26 02:25:00,
2013-05-25 22:30:00,56.6,43.3,30.31,West,281,3.0,6.0,61,0.00,,,0.00,Wunderground v.1.15,2013-05-26 02:30:00,
2013-05-25 22:36:00,56.6,43.3,30.31,NNW,327,3.0,5.0,61,0.00,,,0.00,Wunderground v.1.15,2013-05-26 02:36:00,
2013-05-25 22:42:00,56.6,43.3,30.31,SW,229,3.0,4.0,61,0.00,,,0.00,Wunderground v.1.15,2013-05-26 02:42:00,
2013-05-25 22:48:00,56.6,43.7,30.32,SSW,212,3.0,6.0,62,0.00,,,0.00,Wunderground v.1.15,2013-05-26 02:48:00,
2013-05-25 22:54:00,56.5,43.6,30.32,SW,231,4.0,7.0,62,0.00,,,0.00,Wunderground v.1.15,2013-05-26 02:54:00,
2013-05-25 23:01:00,56.4,44.0,30.32,SSW,213,3.0,5.0,63,0.00,,,0.00,Wunderground v.1.15,2013-05-26 03:01:00,
2013-05-25 23:07:00,56.2,43.8,30.32,WSW,245,4.0,5.0,63,0.00,,,0.00,Wunderground v.1.15,2013-05-26 03:07:00,
2013-05-25 23:13:00,56.1,43.7,30.31,West,266,4.0,5.0,63,0.00,,,0.00,Wunderground v.1.15,2013-05-26 03:13:00,
2013-05-25 23:18:00,55.9,43.5,30.31,West,267,3.0,6.0,63,0.00,,,0.00,Wunderground v.1.15,2013-05-26 03:18:00,
2013-05-25 23:24:00,55.8,43.8,30.31,SSW,207,3.0,5.0,64,0.00,,,0.00,Wunderground v.1.15,2013-05-26 03:24:00,
2013-05-25 23:30:00,55.7,43.7,30.31,West,276,4.0,6.0,64,0.00,,,0.00,Wunderground v.1.15,2013-05-26 03:30:00,
2013-05-25 23:36:00,55.6,43.6,30.31,WNW,297,3.0,5.0,64,0.00,,,0.00,Wunderground v.1.15,2013-05-26 03:36:00,
2013-05-25 23:42:00,55.5,43.1,30.31,SW,225,4.0,5.0,63,0.00,,,0.00,Wunderground v.1.15,2013-05-26 03:42:00,
2013-05-25 23:48:00,55.4,43.4,30.31,WSW,239,4.0,5.0,64,0.00,,,0.00,Wunderground v.1.15,2013-05-26 03:48:00,
2013-05-25 23:54:00,55.2,43.2,30.31,NNW,344,4.0,7.0,64,0.00,,,0.00,Wunderground v.1.15,2013-05-26 03:54:00,
2013-05-25 23:59:00,55.1,42.7,30.32,WNW,301,4.0,7.0,63,0.00,,,0.00,Wunderground v.1.15,2013-05-26 03:59:00,